When you browse on this site, cookies collect data to enhance your experience and personalize the content and advertising you see.
Visit our Privacy Policy to learn more. By continuing to use the site, you agree to this use of cookies and data.
  • In Lithuania
  • List of Countries
  • For 7 days
  • Water Temperature
  • Weather Map
  • Weather Widgets
  • user-avatar
    Login

    Hourly Weather San Cristóbal

    Today, 19 August, Monday

    Time Temperature Precipitation Wind Pressure Humidity
    00:00 +20°C° 0.1 mm 1 mps 672 mmHg 91%
    01:00 +20°C° 0 mm 1 mps 672 mmHg 91%
    02:00 +20°C° 0 mm 1 mps 672 mmHg 91%
    03:00 +20°C° 0 mm 1 mps 671 mmHg 91%
    04:00 +18°C° 0 mm 2 mps 671 mmHg 90%
    05:00 +19°C° 0.1 mm 2 mps 672 mmHg 88%
    06:00 +20°C° 0.1 mm 2 mps 672 mmHg 85%
    07:00 +21°C° 0.1 mm 2 mps 673 mmHg 83%
    08:00 +23°C° 0.3 mm 2 mps 673 mmHg 78%
    09:00 +24°C° 0.3 mm 3 mps 674 mmHg 74%
    10:00 +26°C° 0.3 mm 3 mps 674 mmHg 70%
    11:00 +26°C° 0.5 mm 3 mps 674 mmHg 70%
    12:00 +26°C° 0.5 mm 3 mps 673 mmHg 70%
    13:00 +27°C° 0.5 mm 3 mps 673 mmHg 69%
    14:00 +26°C° 0.4 mm 3 mps 672 mmHg 71%
    15:00 +25°C° 0.4 mm 2 mps 671 mmHg 73%
    16:00 +25°C° 0.4 mm 1 mps 671 mmHg 76%
    17:00 +23°C° 0.1 mm 1 mps 671 mmHg 80%
    18:00 +22°C° 0.1 mm 1 mps 671 mmHg 85%
    19:00 +21°C° 0.1 mm 1 mps 671 mmHg 89%
    20:00 +21°C° 0 mm 1 mps 671 mmHg 86%
    21:00 +19°C° 0 mm 2 mps 672 mmHg 83%
    22:00 +19°C° 0 mm 2 mps 673 mmHg 81%
    23:00 +19°C° 0 mm 2 mps 672 mmHg 81%

    Tomorrow, 20 August, Tuesday

    Time Temperature Precipitation Wind Pressure Humidity
    00:00 +19°C° 0 mm 2 mps 672 mmHg 81%
    01:00 +19°C° 0 mm 2 mps 672 mmHg 81%
    02:00 +19°C° 0 mm 2 mps 672 mmHg 81%
    03:00 +19°C° 0 mm 2 mps 672 mmHg 81%
    04:00 +19°C° 0 mm 1 mps 672 mmHg 81%
    05:00 +19°C° 0 mm 2 mps 672 mmHg 78%
    06:00 +20°C° 0 mm 2 mps 672 mmHg 75%
    07:00 +21°C° 0 mm 2 mps 673 mmHg 71%
    08:00 +24°C° 0 mm 2 mps 674 mmHg 64%
    09:00 +27°C° 0 mm 2 mps 674 mmHg 56%
    10:00 +29°C° 0 mm 3 mps 675 mmHg 48%
    11:00 +29°C° 0.1 mm 3 mps 674 mmHg 48%
    12:00 +29°C° 0.1 mm 3 mps 674 mmHg 49%
    13:00 +30°C° 0.1 mm 3 mps 674 mmHg 49%
    14:00 +28°C° 0.5 mm 3 mps 673 mmHg 58%
    15:00 +27°C° 0.5 mm 3 mps 672 mmHg 66%
    16:00 +25°C° 0.5 mm 2 mps 672 mmHg 75%
    17:00 +24°C° 0.2 mm 2 mps 672 mmHg 80%
    18:00 +23°C° 0.2 mm 2 mps 672 mmHg 85%
    19:00 +20°C° 0.2 mm 2 mps 672 mmHg 90%
    20:00 +20°C° 0 mm 2 mps 672 mmHg 90%
    21:00 +20°C° 0 mm 2 mps 672 mmHg 89%
    22:00 +19°C° 0 mm 2 mps 673 mmHg 88%
    23:00 +19°C° 0 mm 2 mps 672 mmHg 87%

    Day after tomorrow, 21 August, Wednesday

    Time Temperature Precipitation Wind Pressure Humidity
    00:00 +19°C° 0 mm 2 mps 672 mmHg 86%
    01:00 +19°C° 0 mm 2 mps 672 mmHg 85%
    02:00 +19°C° 0 mm 2 mps 671 mmHg 85%
    03:00 +18°C° 0 mm 2 mps 671 mmHg 85%
    04:00 +18°C° 0 mm 2 mps 671 mmHg 85%
    05:00 +19°C° 0 mm 2 mps 672 mmHg 81%
    06:00 +20°C° 0 mm 2 mps 673 mmHg 77%
    07:00 +21°C° 0 mm 2 mps 673 mmHg 74%
    08:00 +24°C° 0.1 mm 2 mps 674 mmHg 66%
    09:00 +26°C° 0.1 mm 2 mps 675 mmHg 59%
    10:00 +29°C° 0.1 mm 3 mps 675 mmHg 51%
    11:00 +29°C° 0.2 mm 3 mps 675 mmHg 50%
    12:00 +29°C° 0.2 mm 3 mps 674 mmHg 49%
    13:00 +30°C° 0.2 mm 3 mps 673 mmHg 49%
    14:00 +29°C° 0.4 mm 3 mps 673 mmHg 55%
    15:00 +28°C° 0.4 mm 2 mps 672 mmHg 61%
    16:00 +27°C° 0.4 mm 2 mps 671 mmHg 67%
    17:00 +25°C° 0.2 mm 2 mps 671 mmHg 74%
    18:00 +23°C° 0.2 mm 2 mps 671 mmHg 82%
    19:00 +21°C° 0.2 mm 1 mps 671 mmHg 89%
    20:00 +21°C° 0 mm 1 mps 672 mmHg 88%
    21:00 +21°C° 0 mm 1 mps 672 mmHg 88%
    22:00 +19°C° 0 mm 2 mps 672 mmHg 87%
    23:00 +20°C° 0 mm 1 mps 672 mmHg 87%

    22 August, Thursday

    Time Temperature Precipitation Wind Pressure Humidity
    00:00 +20°C° 0 mm 1 mps 672 mmHg 87%
    01:00 +20°C° 0 mm 1 mps 672 mmHg 87%
    02:00 +20°C° 0 mm 1 mps 672 mmHg 86%
    03:00 +20°C° 0 mm 1 mps 672 mmHg 85%
    04:00 +20°C° 0 mm 1 mps 672 mmHg 85%
    05:00 +21°C° 0 mm 1 mps 672 mmHg 81%
    06:00 +22°C° 0 mm 1 mps 673 mmHg 76%
    07:00 +22°C° 0 mm 1 mps 673 mmHg 72%
    08:00 +24°C° 0 mm 2 mps 674 mmHg 64%
    09:00 +27°C° 0 mm 2 mps 675 mmHg 56%
    10:00 +29°C° 0 mm 2 mps 675 mmHg 48%
    11:00 +29°C° 0 mm 3 mps 674 mmHg 45%
    12:00 +30°C° 0 mm 3 mps 674 mmHg 42%
    13:00 +31°C° 0 mm 3 mps 673 mmHg 39%
    14:00 +30°C° 0.1 mm 3 mps 673 mmHg 43%
    15:00 +30°C° 0.1 mm 3 mps 672 mmHg 47%
    16:00 +29°C° 0.1 mm 2 mps 672 mmHg 51%
    17:00 +27°C° 0.1 mm 2 mps 672 mmHg 61%
    18:00 +24°C° 0.1 mm 2 mps 672 mmHg 71%
    19:00 +22°C° 0.1 mm 1 mps 672 mmHg 82%
    20:00 +22°C° 0 mm 1 mps 672 mmHg 82%
    21:00 +21°C° 0 mm 1 mps 673 mmHg 83%
    22:00 +21°C° 0 mm 1 mps 673 mmHg 83%
    23:00 +21°C° 0.1 mm 1 mps 673 mmHg 81%

    23 August, Friday

    Time Temperature Precipitation Wind Pressure Humidity
    00:00 +21°C° 0.1 mm 1 mps 672 mmHg 80%
    01:00 +21°C° 0.1 mm 1 mps 672 mmHg 78%
    02:00 +21°C° 0.1 mm 1 mps 672 mmHg 79%
    03:00 +21°C° 0.1 mm 1 mps 672 mmHg 79%
    04:00 +21°C° 0.1 mm 1 mps 672 mmHg 80%
    05:00 +22°C° 0 mm 1 mps 672 mmHg 77%
    06:00 +22°C° 0 mm 1 mps 673 mmHg 75%
    07:00 +23°C° 0 mm 1 mps 673 mmHg 73%
    08:00 +25°C° 0 mm 2 mps 674 mmHg 65%
    09:00 +27°C° 0 mm 2 mps 674 mmHg 58%
    10:00 +29°C° 0 mm 3 mps 675 mmHg 50%
    11:00 +29°C° 0.1 mm 3 mps 674 mmHg 50%
    12:00 +30°C° 0.1 mm 3 mps 674 mmHg 49%
    13:00 +30°C° 0.1 mm 3 mps 673 mmHg 49%
    14:00 +29°C° 0.6 mm 3 mps 672 mmHg 58%
    15:00 +27°C° 0.6 mm 3 mps 672 mmHg 67%
    16:00 +26°C° 0.6 mm 3 mps 671 mmHg 76%
    17:00 +24°C° 1.3 mm 3 mps 671 mmHg 82%
    18:00 +23°C° 1.3 mm 2 mps 672 mmHg 88%
    19:00 +20°C° 1.3 mm 2 mps 672 mmHg 94%
    20:00 +20°C° 1.4 mm 2 mps 672 mmHg 94%
    21:00 +20°C° 1.4 mm 2 mps 672 mmHg 95%
    22:00 +20°C° 1.4 mm 1 mps 673 mmHg 95%
    23:00 +20°C° 0 mm 1 mps 672 mmHg 93%

    24 August, Saturday

    Time Temperature Precipitation Wind Pressure Humidity
    00:00 +19°C° 0 mm 2 mps 672 mmHg 92%
    01:00 +19°C° 0 mm 2 mps 671 mmHg 90%
    02:00 +19°C° 0 mm 2 mps 671 mmHg 87%
    03:00 +19°C° 0 mm 2 mps 671 mmHg 84%
    04:00 +20°C° 0 mm 1 mps 671 mmHg 82%
    05:00 +21°C° 0 mm 1 mps 672 mmHg 78%
    06:00 +22°C° 0 mm 1 mps 673 mmHg 75%
    07:00 +23°C° 0 mm 1 mps 673 mmHg 71%
    08:00 +24°C° 0 mm 2 mps 674 mmHg 65%
    09:00 +26°C° 0 mm 2 mps 674 mmHg 59%
    10:00 +28°C° 0 mm 3 mps 675 mmHg 52%
    11:00 +29°C° 0.2 mm 3 mps 674 mmHg 52%
    12:00 +29°C° 0.2 mm 3 mps 674 mmHg 53%
    13:00 +29°C° 0.2 mm 3 mps 673 mmHg 53%
    14:00 +29°C° 0.2 mm 3 mps 672 mmHg 55%
    15:00 +28°C° 0.2 mm 2 mps 672 mmHg 56%
    16:00 +28°C° 0.2 mm 2 mps 671 mmHg 58%
    17:00 +26°C° 0.1 mm 2 mps 671 mmHg 68%
    18:00 +24°C° 0.1 mm 2 mps 671 mmHg 78%
    19:00 +21°C° 0.1 mm 1 mps 671 mmHg 88%
    20:00 +21°C° 0 mm 1 mps 672 mmHg 87%
    21:00 +21°C° 0 mm 1 mps 672 mmHg 87%
    22:00 +20°C° 0 mm 1 mps 672 mmHg 87%
    23:00 +20°C° 0 mm 1 mps 672 mmHg 85%
    Show more